GW7312 Weather Reports


time (UTC)temp
F
wind
direction
speed
knots
gust
knots
rain 1hr
in
rain 24hr
in
rain mn
in
humidity
%
barometer
mb
20260507003517 56 0.0 0.0 0.00 0.00 0.00 84 1020.3
20260507001539 57 0.0 0.0 0.00 0.00 0.00 82 1020.2
20260507000516 56 0.0 0.0 0.00 0.00 0.00 82 1020.1
20260506235517 56 0.0 0.0 0.00 0.00 0.00 82 1020.1
20260506234516 56 0.0 0.0 0.00 0.00 0.00 82 1020.1
20260506233603 56 0.0 0.0 0.00 0.00 0.00 82 1020.3
20260506232524 56 0.0 0.0 0.00 0.00 0.00 81 1020.3
20260506231516 57 0.0 0.0 0.00 0.00 0.00 82 1020.4
20260506230556 57 0.0 0.0 0.00 0.00 0.00 80 1020.3
20260506225516 57 0.0 0.0 0.00 0.00 0.00 80 1020.3
20260506224516 57 0.0 0.0 0.00 0.00 0.00 81 1020.3
20260506223516 57 0.0 0.0 0.00 0.00 0.00 79 1020.3
20260506222516 57 0.0 0.0 0.00 0.00 0.00 80 1020.2
20260506221516 57 0.0 0.0 0.00 0.00 0.00 79 1020.4
20260506220516 57 0.0 0.0 0.00 0.00 0.00 79 1020.3
20260506215516 57 0.0 0.9 0.00 0.00 0.00 80 1020.4
20260506214516 56 0.0 0.9 0.00 0.00 0.00 80 1020.5
20260506213516 56 0.0 0.9 0.00 0.00 0.00 80 1020.5
20260506212516 56 0.0 0.9 0.00 0.00 0.00 79 1020.4
20260506211516 56 0.0 0.0 0.00 0.00 0.00 81 1020.4
20260506210636 56 0.0 0.9 0.00 0.00 0.00 80 1020.5
20260506205516 56 0.0 0.0 0.00 0.00 0.00 81 1020.5
20260506204556 56 0.0 0.0 0.00 0.00 0.00 80 1020.5
20260506203516 56 0.0 0.0 0.00 0.00 0.00 80 1020.4
20260506202516 55 0.0 0.9 0.00 0.00 0.00 80 1020.4
20260506201516 55 0.0 0.9 0.00 0.00 0.00 81 1020.5
20260506200516 55 0.0 1.7 0.00 0.00 0.00 81 1020.4
20260506195516 55 0.0 2.6 0.00 0.00 0.00 81 1020.3
20260506194516 55 0.0 0.0 0.00 0.00 0.00 82 1020.2
20260506193516 54 0.0 0.9 0.00 0.00 0.00 83 1020.2
20260506192540 55 0.0 0.0 0.00 0.00 0.00 84 1020.1
20260506191516 54 0.0 0.0 0.00 0.00 0.00 84 1020.2
20260506190516 54 0.0 1.7 0.00 0.00 0.00 84 1020.1
20260506185516 54 0.0 0.9 0.00 0.00 0.00 85 1020.1
20260506184516 54 0.0 0.9 0.00 0.00 0.00 85 1020.1
20260506183601 54 0.0 0.9 0.00 0.00 0.00 87 1020.1
20260506182556 53 0.0 2.6 0.00 0.00 0.00 86 1020.0
20260506181526 54 0.0 0.0 0.00 0.00 0.00 86 1019.8
20260506180520 54 0.0 1.7 0.00 0.00 0.00 86 1019.8
20260506175520 54 0.0 3.5 0.00 0.00 0.00 86 1019.8
20260506174519 54 0.0 0.9 0.00 0.00 0.00 87 1019.8
20260506173515 54 0.0 0.9 0.00 0.00 0.00 88 1019.7
20260506172516 54 0.0 0.9 0.00 0.00 0.00 88 1019.4
20260506171516 54 0.0 1.7 0.00 0.00 0.00 87 1019.6
20260506170516 54 0.0 0.9 0.00 0.00 0.00 88 1019.8
20260506165515 54 0.0 0.9 0.00 0.00 0.00 88 1019.8
20260506164516 53 0.0 0.9 0.00 0.00 0.00 88 1019.6
20260506163555 53 0.0 0.9 0.00 0.00 0.00 89 1019.7
20260506162515 53 0.0 0.9 0.00 0.00 0.00 89 1019.9
20260506160516 53 0.0 1.7 0.00 0.00 0.00 90 1019.7
20260506155519 53 0.0 0.9 0.00 0.00 0.00 91 1019.2
20260506154536 53 0.0 0.0 0.00 0.00 0.00 92 1018.9
20260506153550 53 0.0 0.0 0.00 0.00 0.00 92 1018.8
20260506152518 52 0.0 0.0 0.00 0.00 0.00 92 1019.0
20260506151516 52 0.0 0.0 0.00 0.00 0.00 92 1019.1
20260506150726 52 0.0 0.0 0.00 0.00 0.00 93 1019.3
20260506145603 52 0.0 0.0 0.00 0.00 0.00 92 1019.3
20260506144528 52 0.0 0.0 0.00 0.00 0.00 93 1019.4
20260506143517 52 0.0 0.0 0.00 0.00 0.00 93 1018.9
20260506142517 52 0.0 0.0 0.00 0.00 0.00 93 1018.9
20260506141518 52 0.0 0.0 0.00 0.00 0.00 93 1018.8
20260506140517 51 0.0 0.0 0.00 0.00 0.00 94 1018.9
20260506135517 51 0.0 0.9 0.00 0.00 0.00 94 1018.8
20260506134517 51 0.0 0.0 0.00 0.00 0.00 93 1018.8
20260506133557 51 0.0 0.0 0.00 0.00 0.00 93 1018.8
20260506132517 51 0.0 0.0 0.00 0.00 0.00 93 1018.9
20260506131518 52 0.0 0.9 0.00 0.00 0.00 92 1018.7
20260506130557 52 0.0 0.9 0.00 0.00 0.00 92 1018.7
20260506125522 52 0.0 0.9 0.00 0.00 0.00 92 1018.6
20260506124528 52 0.0 2.6 0.00 0.00 0.00 92 1018.5
20260506123615 52 0.0 1.7 0.00 0.00 0.00 92 1018.2
20260506122542 52 0.0 0.9 0.00 0.00 0.00 93 1018.2
20260506121517 52 0.0 0.0 0.00 0.00 0.00 93 1018.4
20260506120517 52 0.0 0.9 0.00 0.00 0.00 94 1018.2
20260506114517 51 0.0 0.0 0.00 0.00 0.00 95 1018.1
20260506113517 51 0.0 0.9 0.00 0.00 0.00 95 1018.0
20260506112517 51 0.0 0.0 0.00 0.00 0.00 95 1018.0
20260506111517 50 0.0 0.0 0.00 0.00 0.00 95 1017.8
20260506110517 50 0.0 0.0 0.00 0.00 0.00 96 1017.7
20260506105517 50 0.0 0.0 0.00 0.00 0.00 96 1017.8
20260506104517 49 0.0 0.0 0.00 0.00 0.00 95 1017.6
20260506103517 49 0.0 0.0 0.00 0.00 0.00 95 1017.6
20260506101516 48 0.0 0.0 0.00 0.00 0.00 95 1017.4
20260506100516 48 0.0 0.0 0.00 0.00 0.00 95 1017.6
20260506095516 48 0.0 0.0 0.00 0.00 0.00 95 1017.4
20260506094516 48 0.0 0.0 0.00 0.00 0.00 95 1017.4
20260506093516 48 0.0 0.0 0.00 0.00 0.00 95 1017.4
20260506092517 48 0.0 0.0 0.00 0.00 0.00 94 1017.3
20260506091516 49 0.0 0.0 0.00 0.00 0.00 94 1017.3
20260506090517 49 0.0 0.0 0.00 0.00 0.00 94 1017.3
20260506085517 49 0.0 0.0 0.00 0.00 0.00 94 1017.3
20260506084517 49 0.0 0.0 0.00 0.00 0.00 94 1017.2
20260506083516 49 0.0 0.0 0.00 0.00 0.00 94 1017.1
20260506082517 49 0.0 0.0 0.00 0.00 0.00 94 1017.0
20260506081516 49 0.0 0.0 0.00 0.00 0.00 94 1017.0
20260506080516 49 0.0 0.0 0.00 0.00 0.00 93 1016.8
20260506073516 50 0.0 0.0 0.00 0.00 0.00 93 1016.7
20260506072516 50 0.0 0.0 0.00 0.00 0.00 93 1016.5
20260506071516 51 0.0 0.0 0.00 0.00 0.00 93 1016.4
20260506070516 51 0.0 0.0 0.00 0.00 0.00 92 1016.4
20260506062517 52 0.0 0.0 0.00 0.00 0.00 91 1016.2
20260506061517 53 0.0 0.0 0.00 0.00 0.00 91 1016.1
20260506060518 53 0.0 0.0 0.00 0.00 0.00 91 1016.2
20260506050527 55 0.0 0.0 0.00 0.00 0.00 89 1015.5
20260506044517 56 0.0 0.0 0.00 0.00 0.00 89 1015.2
20260506043526 56 0.0 0.0 0.00 0.00 0.00 88 1015.3
20260506042545 56 0.0 0.0 0.00 0.00 0.00 88 1015.2
20260506041517 56 0.0 0.0 0.00 0.00 0.00 87 1015.2
20260506040532 57 0.0 0.0 0.00 0.00 0.00 87 1014.9
20260506035517 57 0.0 0.0 0.00 0.00 0.00 86 1015.1
20260506034517 58 0.0 0.0 0.00 0.00 0.00 86 1015.0
20260506033517 58 0.0 0.0 0.00 0.00 0.00 85 1014.9
20260506032517 58 0.0 0.0 0.00 0.00 0.00 85 1014.8
20260506031517 59 0.0 0.0 0.00 0.00 0.00 84 1014.6
20260506030517 59 0.0 0.0 0.00 0.00 0.00 83 1014.6
20260506025517 60 0.0 0.0 0.00 0.00 0.00 82 1014.5
20260506023517 60 0.0 0.0 0.00 0.00 0.00 80 1014.4
20260506022649 61 0.0 0.0 0.00 0.00 0.00 80 1014.5
20260506021517 61 0.0 0.0 0.00 0.00 0.00 80 1014.6
20260506020516 61 0.0 0.0 0.00 0.00 0.00 78 1014.5
20260506015637 61 0.0 0.0 0.00 0.00 0.00 78 1014.5
20260506014517 62 0.0 0.0 0.00 0.00 0.00 78 1014.5
20260506013556 62 0.0 0.0 0.00 0.00 0.00 76 1014.5
20260506012557 62 0.0 0.0 0.00 0.00 0.00 76 1014.5
20260506011557 62 0.0 0.0 0.00 0.00 0.00 76 1014.6
20260506010556 62 0.0 0.9 0.00 0.00 0.00 75 1014.7
20260506005556 63 0.0 0.9 0.00 0.00 0.00 74 1014.6
20260506004516 63 0.0 0.0 0.00 0.00 0.00 74 1014.5